| time (UTC) | temp C | wind direction | speed KPH | gust KPH | rain 1hr cm | rain 24hr cm | rain mn cm | humidity % | barometer mb |
| 20260905180936 | 27 | 0.0 | 0.0 | 0.00 | 0.00 | 0.00 | 47 | 1014.1 | |
| 20260905180416 | 27 | 125 | 1.6 | 6.4 | 0.00 | 0.00 | 0.00 | 48 | 1014.0 |
| 20260905175936 | 27 | 58 | 4.8 | 6.4 | 0.00 | 0.00 | 0.00 | 48 | 1014.1 |
| 20260905175416 | 26 | 0.0 | 3.2 | 0.00 | 0.00 | 0.00 | 51 | 1014.1 | |
| 20260905174916 | 26 | 125 | 6.4 | 9.7 | 0.00 | 0.00 | 0.00 | 52 | 1014.2 |
| 20260905174415 | 26 | 125 | 3.2 | 6.4 | 0.00 | 0.00 | 0.00 | 56 | 1014.1 |
| 20260905173936 | 26 | 103 | 3.2 | 3.2 | 0.00 | 0.00 | 0.00 | 57 | 1014.1 |
| 20260905173416 | 26 | 0.0 | 0.0 | 0.00 | 0.00 | 0.00 | 60 | 1014.1 | |
| 20260905172916 | 26 | 148 | 4.8 | 8.0 | 0.00 | 0.00 | 0.00 | 61 | 1014.0 |
| 20260905171916 | 25 | 283 | 3.2 | 4.8 | 0.00 | 0.00 | 0.00 | 62 | 1014.0 |
| 20260905171416 | 25 | 0.0 | 1.6 | 0.00 | 0.00 | 0.00 | 63 | 1014.0 | |
| 20260905170916 | 25 | 125 | 4.8 | 6.4 | 0.00 | 0.00 | 0.00 | 63 | 1014.1 |
| 20260905170416 | 25 | 0.0 | 1.6 | 0.00 | 0.00 | 0.00 | 65 | 1014.0 | |
| 20260905165916 | 25 | 125 | 1.6 | 3.2 | 0.00 | 0.00 | 0.00 | 66 | 1014.1 |
| 20260905165416 | 24 | 0.0 | 1.6 | 0.00 | 0.00 | 0.00 | 68 | 1014.1 | |
| 20260905164916 | 24 | 0.0 | 1.6 | 0.00 | 0.00 | 0.00 | 69 | 1014.1 | |
| 20260905164416 | 24 | 125 | 3.2 | 8.0 | 0.00 | 0.00 | 0.00 | 71 | 1014.1 |
| 20260905163936 | 23 | 125 | 1.6 | 3.2 | 0.00 | 0.00 | 0.00 | 71 | 1014.1 |
| 20260905163415 | 23 | 0.0 | 0.0 | 0.00 | 0.00 | 0.00 | 73 | 1014.0 | |
| 20260905162915 | 23 | 283 | 1.6 | 3.2 | 0.00 | 0.00 | 0.00 | 71 | 1014.0 |
| 20260905162415 | 23 | 0.0 | 0.0 | 0.00 | 0.00 | 0.00 | 75 | 1014.0 | |
| 20260905161916 | 22 | 0.0 | 0.0 | 0.00 | 0.00 | 0.00 | 76 | 1013.9 | |
| 20260905161416 | 22 | 0.0 | 1.6 | 0.00 | 0.00 | 0.00 | 75 | 1013.9 | |
| 20260905160916 | 22 | 238 | 3.2 | 3.2 | 0.00 | 0.00 | 0.00 | 76 | 1013.9 |
| 20260905160415 | 22 | 0.0 | 1.6 | 0.00 | 0.00 | 0.00 | 78 | 1013.9 | |
| 20260905155916 | 22 | 0.0 | 0.0 | 0.00 | 0.00 | 0.00 | 80 | 1014.0 | |
| 20260905155416 | 22 | 305 | 3.2 | 4.8 | 0.00 | 0.00 | 0.00 | 79 | 1013.9 |
| 20260905154916 | 22 | 0.0 | 3.2 | 0.00 | 0.00 | 0.00 | 82 | 1013.8 | |
| 20260905154416 | 21 | 0.0 | 0.0 | 0.00 | 0.00 | 0.00 | 82 | 1013.8 | |
| 20260905153935 | 21 | 305 | 3.2 | 4.8 | 0.00 | 0.00 | 0.00 | 82 | 1013.8 |
| 20260905153416 | 21 | 0.0 | 0.0 | 0.00 | 0.00 | 0.00 | 83 | 1013.8 | |
| 20260905152915 | 21 | 328 | 1.6 | 1.6 | 0.00 | 0.00 | 0.00 | 81 | 1013.8 |
| 20260905152415 | 21 | 13 | 1.6 | 3.2 | 0.00 | 0.00 | 0.00 | 82 | 1013.8 |
| 20260905151916 | 21 | 125 | 1.6 | 3.2 | 0.00 | 0.00 | 0.00 | 84 | 1013.7 |
| 20260905151415 | 21 | 305 | 3.2 | 4.8 | 0.00 | 0.00 | 0.00 | 83 | 1013.6 |
| 20260905150935 | 20 | 0.0 | 0.0 | 0.00 | 0.00 | 0.00 | 86 | 1013.6 | |
| 20260905150436 | 20 | 0.0 | 0.0 | 0.00 | 0.00 | 0.00 | 86 | 1013.6 | |
| 20260905145916 | 20 | 0.0 | 0.0 | 0.00 | 0.00 | 0.00 | 87 | 1013.6 | |
| 20260905145415 | 19 | 350 | 1.6 | 3.2 | 0.00 | 0.00 | 0.00 | 87 | 1013.6 |
| 20260905144916 | 19 | 0.0 | 1.6 | 0.00 | 0.00 | 0.00 | 88 | 1013.5 | |
| 20260905144415 | 18 | 0.0 | 0.0 | 0.00 | 0.00 | 0.00 | 89 | 1013.5 | |
| 20260905143915 | 18 | 350 | 1.6 | 3.2 | 0.00 | 0.00 | 0.00 | 89 | 1013.4 |
| 20260905143415 | 18 | 0.0 | 0.0 | 0.00 | 0.00 | 0.00 | 90 | 1013.4 | |
| 20260905142915 | 17 | 0.0 | 0.0 | 0.00 | 0.00 | 0.00 | 90 | 1013.4 | |
| 20260905142435 | 17 | 0.0 | 0.0 | 0.00 | 0.00 | 0.00 | 90 | 1013.4 | |
| 20260905141916 | 17 | 0.0 | 1.6 | 0.00 | 0.00 | 0.00 | 90 | 1013.4 | |
| 20260905141415 | 17 | 0.0 | 0.0 | 0.00 | 0.00 | 0.00 | 90 | 1013.2 | |
| 20260905140915 | 17 | 0.0 | 0.0 | 0.00 | 0.00 | 0.00 | 91 | 1013.2 | |
| 20260905140416 | 17 | 0.0 | 0.0 | 0.00 | 0.00 | 0.00 | 91 | 1013.1 | |
| 20260905135915 | 17 | 0.0 | 1.6 | 0.00 | 0.00 | 0.00 | 91 | 1013.1 | |
| 20260905135415 | 17 | 0.0 | 0.0 | 0.00 | 0.00 | 0.00 | 91 | 1013.0 | |
| 20260905134936 | 17 | 0.0 | 0.0 | 0.00 | 0.00 | 0.00 | 91 | 1013.0 | |
| 20260905134455 | 17 | 0.0 | 1.6 | 0.00 | 0.00 | 0.00 | 92 | 1012.9 | |
| 20260905133916 | 17 | 0.0 | 1.6 | 0.00 | 0.00 | 0.00 | 92 | 1012.9 | |
| 20260905133415 | 16 | 0.0 | 0.0 | 0.00 | 0.00 | 0.00 | 91 | 1012.9 | |
| 20260905132916 | 16 | 0.0 | 0.0 | 0.00 | 0.00 | 0.00 | 90 | 1012.8 | |
| 20260905132415 | 17 | 0.0 | 0.0 | 0.00 | 0.00 | 0.00 | 90 | 1012.8 | |
| 20260905131956 | 17 | 0.0 | 0.0 | 0.00 | 0.00 | 0.00 | 90 | 1012.8 | |
| 20260905131415 | 17 | 0.0 | 0.0 | 0.00 | 0.00 | 0.00 | 91 | 1012.7 | |
| 20260905130915 | 17 | 0.0 | 0.0 | 0.00 | 0.00 | 0.00 | 90 | 1012.6 | |
| 20260905130415 | 17 | 0.0 | 0.0 | 0.00 | 0.00 | 0.00 | 90 | 1012.6 | |
| 20260905125936 | 17 | 0.0 | 1.6 | 0.00 | 0.00 | 0.00 | 90 | 1012.6 | |
| 20260905125415 | 17 | 0.0 | 0.0 | 0.00 | 0.00 | 0.00 | 90 | 1012.6 | |
| 20260905124915 | 17 | 0.0 | 0.0 | 0.00 | 0.00 | 0.00 | 91 | 1012.6 | |
| 20260905124415 | 17 | 0.0 | 0.0 | 0.00 | 0.00 | 0.00 | 91 | 1012.6 | |
| 20260905123915 | 17 | 0.0 | 0.0 | 0.00 | 0.00 | 0.00 | 91 | 1012.6 | |
| 20260905123415 | 17 | 103 | 1.6 | 3.2 | 0.00 | 0.00 | 0.00 | 91 | 1012.6 |
| 20260905122915 | 17 | 0.0 | 0.0 | 0.00 | 0.00 | 0.00 | 91 | 1012.5 | |
| 20260905122415 | 17 | 0.0 | 0.0 | 0.00 | 0.00 | 0.00 | 91 | 1012.6 | |
| 20260905121915 | 17 | 0.0 | 0.0 | 0.00 | 0.00 | 0.00 | 90 | 1012.7 | |
| 20260905121415 | 17 | 0.0 | 0.0 | 0.00 | 0.00 | 0.00 | 90 | 1012.7 | |
| 20260905120915 | 17 | 0.0 | 0.0 | 0.00 | 0.00 | 0.00 | 90 | 1012.7 | |
| 20260905120415 | 18 | 0.0 | 0.0 | 0.00 | 0.00 | 0.00 | 90 | 1012.6 | |
| 20260905115915 | 18 | 0.0 | 0.0 | 0.00 | 0.00 | 0.00 | 90 | 1012.7 | |
| 20260905115415 | 18 | 0.0 | 0.0 | 0.00 | 0.00 | 0.00 | 91 | 1012.6 | |
| 20260905114915 | 18 | 0.0 | 0.0 | 0.00 | 0.00 | 0.00 | 91 | 1012.6 | |
| 20260905114417 | 18 | 0.0 | 0.0 | 0.00 | 0.00 | 0.00 | 90 | 1012.6 | |
| 20260905113917 | 18 | 0.0 | 0.0 | 0.00 | 0.00 | 0.00 | 91 | 1012.6 | |
| 20260905113435 | 18 | 0.0 | 0.0 | 0.00 | 0.00 | 0.00 | 91 | 1012.7 | |
| 20260905112917 | 18 | 0.0 | 0.0 | 0.00 | 0.00 | 0.00 | 91 | 1012.7 | |
| 20260905112417 | 18 | 0.0 | 1.6 | 0.00 | 0.00 | 0.00 | 91 | 1012.8 | |
| 20260905111917 | 18 | 0.0 | 0.0 | 0.00 | 0.00 | 0.00 | 91 | 1012.8 | |
| 20260905111417 | 18 | 0.0 | 0.0 | 0.00 | 0.00 | 0.00 | 90 | 1012.8 | |
| 20260905110917 | 18 | 0.0 | 0.0 | 0.00 | 0.00 | 0.00 | 90 | 1012.8 | |
| 20260905110417 | 18 | 0.0 | 0.0 | 0.00 | 0.00 | 0.00 | 91 | 1012.8 | |
| 20260905105917 | 18 | 0.0 | 1.6 | 0.00 | 0.00 | 0.00 | 91 | 1012.9 | |
| 20260905105417 | 18 | 103 | 1.6 | 3.2 | 0.00 | 0.00 | 0.00 | 91 | 1012.8 |
| 20260905104917 | 18 | 0.0 | 1.6 | 0.00 | 0.00 | 0.00 | 90 | 1012.8 | |
| 20260905104417 | 18 | 0.0 | 0.0 | 0.00 | 0.00 | 0.00 | 90 | 1012.8 | |
| 20260905103917 | 18 | 0.0 | 1.6 | 0.00 | 0.00 | 0.00 | 90 | 1012.7 | |
| 20260905103417 | 18 | 103 | 1.6 | 3.2 | 0.00 | 0.00 | 0.00 | 90 | 1012.8 |
| 20260905102917 | 18 | 0.0 | 1.6 | 0.00 | 0.00 | 0.00 | 90 | 1012.8 | |
| 20260905102417 | 18 | 125 | 3.2 | 3.2 | 0.00 | 0.00 | 0.00 | 90 | 1012.9 |
| 20260905101917 | 18 | 0.0 | 0.0 | 0.00 | 0.00 | 0.00 | 90 | 1012.8 | |
| 20260905101417 | 18 | 0.0 | 1.6 | 0.00 | 0.00 | 0.00 | 90 | 1012.9 | |
| 20260905100917 | 18 | 103 | 1.6 | 1.6 | 0.00 | 0.00 | 0.00 | 91 | 1012.9 |
| 20260905100417 | 18 | 0.0 | 1.6 | 0.00 | 0.00 | 0.00 | 91 | 1012.9 | |
| 20260905095917 | 18 | 0.0 | 1.6 | 0.00 | 0.00 | 0.00 | 91 | 1012.9 | |
| 20260905095417 | 18 | 0.0 | 0.0 | 0.00 | 0.00 | 0.00 | 91 | 1012.9 | |
| 20260905094917 | 18 | 0.0 | 1.6 | 0.00 | 0.00 | 0.00 | 91 | 1013.0 | |
| 20260905094417 | 18 | 0.0 | 0.0 | 0.00 | 0.00 | 0.00 | 91 | 1012.9 | |
| 20260905093937 | 18 | 0.0 | 0.0 | 0.00 | 0.00 | 0.00 | 90 | 1012.9 | |
| 20260905093417 | 19 | 0.0 | 0.0 | 0.00 | 0.00 | 0.00 | 90 | 1012.9 | |
| 20260905092917 | 19 | 0.0 | 0.0 | 0.00 | 0.00 | 0.00 | 90 | 1012.8 | |
| 20260905092415 | 19 | 0.0 | 0.0 | 0.00 | 0.00 | 0.00 | 90 | 1012.8 | |
| 20260905091917 | 19 | 0.0 | 0.0 | 0.00 | 0.00 | 0.00 | 90 | 1012.8 | |
| 20260905091417 | 19 | 0.0 | 1.6 | 0.00 | 0.00 | 0.00 | 90 | 1012.9 | |
| 20260905090917 | 19 | 125 | 1.6 | 3.2 | 0.00 | 0.00 | 0.00 | 90 | 1012.9 |
| 20260905090417 | 19 | 125 | 1.6 | 3.2 | 0.00 | 0.00 | 0.00 | 90 | 1012.9 |
| 20260905085917 | 19 | 0.0 | 0.0 | 0.00 | 0.00 | 0.00 | 90 | 1012.9 | |
| 20260905085437 | 19 | 0.0 | 0.0 | 0.00 | 0.00 | 0.00 | 90 | 1012.9 | |
| 20260905084917 | 19 | 0.0 | 0.0 | 0.00 | 0.00 | 0.00 | 90 | 1012.9 | |
| 20260905084417 | 19 | 0.0 | 0.0 | 0.00 | 0.00 | 0.00 | 90 | 1012.9 | |
| 20260905083917 | 19 | 0.0 | 1.6 | 0.00 | 0.00 | 0.00 | 90 | 1013.0 | |
| 20260905083417 | 19 | 125 | 1.6 | 3.2 | 0.00 | 0.00 | 0.00 | 90 | 1013.0 |
| 20260905082957 | 19 | 0.0 | 0.0 | 0.00 | 0.00 | 0.00 | 89 | 1013.0 | |
| 20260905082417 | 19 | 0.0 | 0.0 | 0.00 | 0.00 | 0.00 | 89 | 1013.1 | |
| 20260905081917 | 19 | 103 | 1.6 | 1.6 | 0.00 | 0.00 | 0.00 | 90 | 1013.1 |
| 20260905081517 | 19 | 125 | 1.6 | 4.8 | 0.00 | 0.00 | 0.00 | 90 | 1013.2 |
| 20260905080937 | 19 | 0.0 | 0.0 | 0.00 | 0.00 | 0.00 | 90 | 1013.2 | |
| 20260905080417 | 19 | 0.0 | 0.0 | 0.00 | 0.00 | 0.00 | 90 | 1013.3 | |
| 20260905075917 | 19 | 0.0 | 1.6 | 0.00 | 0.00 | 0.00 | 90 | 1013.3 | |
| 20260905075417 | 19 | 0.0 | 0.0 | 0.00 | 0.00 | 0.00 | 90 | 1013.2 | |
| 20260905074917 | 19 | 0.0 | 1.6 | 0.00 | 0.00 | 0.00 | 90 | 1013.3 | |
| 20260905074417 | 19 | 0.0 | 0.0 | 0.00 | 0.00 | 0.00 | 90 | 1013.3 | |
| 20260905073917 | 19 | 0.0 | 0.0 | 0.00 | 0.00 | 0.00 | 91 | 1013.2 | |
| 20260905073417 | 19 | 125 | 1.6 | 1.6 | 0.00 | 0.00 | 0.00 | 91 | 1013.2 |
| 20260905072917 | 18 | 0.0 | 0.0 | 0.00 | 0.00 | 0.00 | 91 | 1013.2 | |
| 20260905072417 | 18 | 0.0 | 0.0 | 0.00 | 0.00 | 0.00 | 91 | 1013.1 | |
| 20260905071917 | 18 | 0.0 | 0.0 | 0.00 | 0.00 | 0.00 | 90 | 1013.0 | |
| 20260905071416 | 19 | 0.0 | 0.0 | 0.00 | 0.00 | 0.00 | 90 | 1013.1 | |
| 20260905070917 | 19 | 0.0 | 0.0 | 0.00 | 0.00 | 0.00 | 90 | 1013.1 | |
| 20260905070437 | 19 | 0.0 | 0.0 | 0.00 | 0.00 | 0.00 | 90 | 1013.1 | |
| 20260905065915 | 18 | 0.0 | 0.0 | 0.00 | 0.00 | 0.00 | 90 | 1013.1 | |
| 20260905065437 | 18 | 0.0 | 0.0 | 0.00 | 0.00 | 0.00 | 89 | 1013.0 | |
| 20260905064917 | 19 | 0.0 | 0.0 | 0.00 | 0.00 | 0.00 | 89 | 1013.0 | |
| 20260905064437 | 19 | 0.0 | 0.0 | 0.00 | 0.00 | 0.00 | 89 | 1013.0 | |
| 20260905063917 | 19 | 0.0 | 0.0 | 0.00 | 0.00 | 0.00 | 89 | 1013.1 | |
| 20260905063437 | 19 | 0.0 | 0.0 | 0.00 | 0.00 | 0.00 | 89 | 1013.1 | |
| 20260905062917 | 19 | 0.0 | 0.0 | 0.00 | 0.00 | 0.00 | 89 | 1013.0 | |
| 20260905062415 | 19 | 0.0 | 0.0 | 0.00 | 0.00 | 0.00 | 88 | 1013.0 | |
| 20260905061917 | 20 | 0.0 | 0.0 | 0.00 | 0.00 | 0.00 | 88 | 1013.1 | |
| 20260905061417 | 20 | 0.0 | 0.0 | 0.00 | 0.00 | 0.00 | 88 | 1013.0 | |
| 20260905060917 | 20 | 0.0 | 0.0 | 0.00 | 0.00 | 0.00 | 87 | 1013.0 | |
| 20260905060415 | 20 | 0.0 | 0.0 | 0.00 | 0.00 | 0.00 | 87 | 1012.9 | |
| 20260905055917 | 20 | 0.0 | 0.0 | 0.00 | 0.00 | 0.00 | 87 | 1012.9 | |
| 20260905055417 | 20 | 0.0 | 0.0 | 0.00 | 0.00 | 0.00 | 87 | 1013.0 | |
| 20260905054917 | 20 | 260 | 1.6 | 3.2 | 0.00 | 0.00 | 0.00 | 87 | 1012.9 |
| 20260905054417 | 20 | 0.0 | 0.0 | 0.00 | 0.00 | 0.00 | 87 | 1012.9 | |
| 20260905053917 | 20 | 305 | 6.4 | 8.0 | 0.00 | 0.00 | 0.00 | 87 | 1012.8 |
| 20260905053417 | 20 | 0.0 | 0.0 | 0.00 | 0.00 | 0.00 | 87 | 1012.8 | |
| 20260905052917 | 20 | 283 | 1.6 | 4.8 | 0.00 | 0.00 | 0.00 | 87 | 1012.8 |
| 20260905052417 | 20 | 283 | 1.6 | 6.4 | 0.00 | 0.00 | 0.00 | 87 | 1012.8 |
| 20260905051917 | 20 | 0.0 | 3.2 | 0.00 | 0.00 | 0.00 | 87 | 1012.8 | |
| 20260905051417 | 20 | 283 | 1.6 | 3.2 | 0.00 | 0.00 | 0.00 | 87 | 1012.9 |
| 20260905050937 | 20 | 0.0 | 1.6 | 0.00 | 0.00 | 0.00 | 86 | 1012.9 | |
| 20260905050417 | 20 | 283 | 1.6 | 4.8 | 0.00 | 0.00 | 0.00 | 87 | 1013.0 |
| 20260905045917 | 20 | 260 | 4.8 | 8.0 | 0.00 | 0.00 | 0.00 | 86 | 1012.9 |
| 20260905045437 | 20 | 305 | 3.2 | 4.8 | 0.00 | 0.00 | 0.00 | 86 | 1012.9 |
| 20260905044937 | 20 | 260 | 1.6 | 3.2 | 0.00 | 0.00 | 0.00 | 86 | 1012.8 |
| 20260905044417 | 20 | 283 | 3.2 | 4.8 | 0.00 | 0.00 | 0.00 | 85 | 1012.8 |
| 20260905043917 | 20 | 305 | 4.8 | 6.4 | 0.00 | 0.00 | 0.00 | 85 | 1012.7 |
| 20260905043417 | 20 | 283 | 3.2 | 4.8 | 0.00 | 0.00 | 0.00 | 85 | 1012.7 |
| 20260905042917 | 20 | 0.0 | 1.6 | 0.00 | 0.00 | 0.00 | 84 | 1012.6 | |
| 20260905042417 | 20 | 260 | 1.6 | 3.2 | 0.00 | 0.00 | 0.00 | 84 | 1012.5 |
| 20260905041917 | 20 | 0.0 | 3.2 | 0.00 | 0.00 | 0.00 | 84 | 1012.6 | |
| 20260905041437 | 20 | 0.0 | 1.6 | 0.00 | 0.00 | 0.00 | 84 | 1012.5 | |
| 20260905040917 | 20 | 260 | 4.8 | 8.0 | 0.00 | 0.00 | 0.00 | 84 | 1012.4 |
| 20260905040417 | 21 | 260 | 1.6 | 3.2 | 0.00 | 0.00 | 0.00 | 84 | 1012.3 |
| 20260905035937 | 21 | 260 | 3.2 | 4.8 | 0.00 | 0.00 | 0.00 | 84 | 1012.3 |
| 20260905035517 | 21 | 283 | 4.8 | 6.4 | 0.00 | 0.00 | 0.00 | 83 | 1012.3 |
| 20260905034917 | 21 | 283 | 3.2 | 6.4 | 0.00 | 0.00 | 0.00 | 83 | 1012.1 |
| 20260905034417 | 21 | 260 | 3.2 | 4.8 | 0.00 | 0.00 | 0.00 | 83 | 1012.1 |
| 20260905033917 | 21 | 283 | 6.4 | 9.7 | 0.00 | 0.00 | 0.00 | 83 | 1012.1 |
| 20260905033417 | 21 | 260 | 6.4 | 9.7 | 0.00 | 0.00 | 0.00 | 83 | 1012.0 |
| 20260905033017 | 21 | 283 | 6.4 | 12.9 | 0.00 | 0.00 | 0.00 | 82 | 1012.0 |
| 20260905032417 | 21 | 283 | 3.2 | 8.0 | 0.00 | 0.00 | 0.00 | 82 | 1012.0 |
| 20260905031917 | 21 | 283 | 6.4 | 11.3 | 0.00 | 0.00 | 0.00 | 82 | 1011.9 |
| 20260905031437 | 21 | 283 | 6.4 | 8.0 | 0.00 | 0.00 | 0.00 | 82 | 1011.9 |
| 20260905030917 | 21 | 283 | 6.4 | 9.7 | 0.00 | 0.00 | 0.00 | 81 | 1011.9 |
| 20260905030417 | 21 | 260 | 3.2 | 3.2 | 0.00 | 0.00 | 0.00 | 81 | 1011.8 |
| 20260905025917 | 21 | 260 | 8.0 | 12.9 | 0.00 | 0.00 | 0.00 | 80 | 1011.7 |
| 20260905025416 | 21 | 283 | 6.4 | 9.7 | 0.00 | 0.00 | 0.00 | 80 | 1011.6 |
| 20260905024917 | 21 | 283 | 4.8 | 8.0 | 0.00 | 0.00 | 0.00 | 80 | 1011.6 |
| 20260905024416 | 21 | 283 | 6.4 | 8.0 | 0.00 | 0.00 | 0.00 | 79 | 1011.6 |
| 20260905023917 | 21 | 260 | 8.0 | 11.3 | 0.00 | 0.00 | 0.00 | 79 | 1011.6 |
| 20260905023417 | 21 | 283 | 6.4 | 11.3 | 0.00 | 0.00 | 0.00 | 78 | 1011.7 |
| 20260905022917 | 22 | 283 | 8.0 | 11.3 | 0.00 | 0.00 | 0.00 | 78 | 1011.6 |
| 20260905022417 | 22 | 283 | 6.4 | 9.7 | 0.00 | 0.00 | 0.00 | 77 | 1011.7 |
| 20260905021917 | 22 | 305 | 1.6 | 3.2 | 0.00 | 0.00 | 0.00 | 76 | 1011.7 |
| 20260905021417 | 22 | 260 | 4.8 | 8.0 | 0.00 | 0.00 | 0.00 | 76 | 1011.7 |
| 20260905020917 | 22 | 283 | 4.8 | 6.4 | 0.00 | 0.00 | 0.00 | 75 | 1011.6 |
| 20260905020417 | 22 | 260 | 3.2 | 6.4 | 0.00 | 0.00 | 0.00 | 74 | 1011.6 |
| 20260905015917 | 23 | 283 | 6.4 | 11.3 | 0.00 | 0.00 | 0.00 | 73 | 1011.6 |
| 20260905015417 | 23 | 260 | 8.0 | 11.3 | 0.00 | 0.00 | 0.00 | 72 | 1011.7 |
| 20260905014916 | 23 | 260 | 6.4 | 9.7 | 0.00 | 0.00 | 0.00 | 72 | 1011.7 |
| 20260905014417 | 23 | 305 | 3.2 | 6.4 | 0.00 | 0.00 | 0.00 | 71 | 1011.6 |
| 20260905013916 | 23 | 328 | 6.4 | 12.9 | 0.00 | 0.00 | 0.00 | 70 | 1011.7 |
| 20260905013416 | 23 | 305 | 6.4 | 9.7 | 0.00 | 0.00 | 0.00 | 70 | 1011.7 |
| 20260905012937 | 23 | 305 | 6.4 | 9.7 | 0.00 | 0.00 | 0.00 | 70 | 1011.8 |
| 20260905012417 | 24 | 283 | 8.0 | 12.9 | 0.00 | 0.00 | 0.00 | 69 | 1011.7 |
| 20260905011937 | 24 | 305 | 6.4 | 9.7 | 0.00 | 0.00 | 0.00 | 68 | 1011.8 |
| 20260905011417 | 24 | 260 | 6.4 | 11.3 | 0.00 | 0.00 | 0.00 | 68 | 1011.7 |
| 20260905010917 | 25 | 260 | 8.0 | 14.5 | 0.00 | 0.00 | 0.00 | 68 | 1011.8 |
| 20260905010416 | 25 | 260 | 8.0 | 14.5 | 0.00 | 0.00 | 0.00 | 67 | 1011.8 |
| 20260905005917 | 25 | 283 | 6.4 | 9.7 | 0.00 | 0.00 | 0.00 | 66 | 1011.8 |
| 20260905005416 | 25 | 283 | 8.0 | 16.1 | 0.00 | 0.00 | 0.00 | 64 | 1011.9 |
| 20260905004937 | 26 | 283 | 4.8 | 9.7 | 0.00 | 0.00 | 0.00 | 61 | 1011.8 |
| 20260905004437 | 26 | 260 | 3.2 | 6.4 | 0.00 | 0.00 | 0.00 | 58 | 1011.8 |
| 20260905003917 | 25 | 148 | 1.6 | 4.8 | 0.00 | 0.00 | 0.00 | 57 | 1011.8 |
| 20260905003416 | 26 | 170 | 3.2 | 8.0 | 0.00 | 0.00 | 0.00 | 56 | 1011.9 |
| 20260905002916 | 26 | 170 | 1.6 | 4.8 | 0.00 | 0.00 | 0.00 | 56 | 1011.9 |
| 20260905002416 | 26 | 148 | 3.2 | 6.4 | 0.00 | 0.00 | 0.00 | 55 | 1011.9 |
| 20260905001937 | 25 | 283 | 4.8 | 9.7 | 0.00 | 0.00 | 0.00 | 55 | 1011.8 |
| 20260905001437 | 25 | 283 | 6.4 | 11.3 | 0.00 | 0.00 | 0.00 | 54 | 1011.8 |
| 20260905000916 | 25 | 238 | 4.8 | 8.0 | 0.00 | 0.00 | 0.00 | 55 | 1011.8 |
| 20260905000417 | 25 | 193 | 6.4 | 9.7 | 0.00 | 0.00 | 0.00 | 55 | 1011.9 |
| 20260904235937 | 25 | 170 | 4.8 | 9.7 | 0.00 | 0.00 | 0.00 | 58 | 1011.9 |
| 20260904235417 | 25 | 148 | 6.4 | 9.7 | 0.00 | 0.00 | 0.00 | 57 | 1012.0 |
| 20260904234916 | 25 | 215 | 9.7 | 14.5 | 0.00 | 0.00 | 0.00 | 55 | 1012.1 |
| 20260904234436 | 25 | 215 | 4.8 | 8.0 | 0.00 | 0.00 | 0.00 | 55 | 1012.0 |
| 20260904233916 | 26 | 193 | 8.0 | 12.9 | 0.00 | 0.00 | 0.00 | 54 | 1012.0 |
| 20260904233416 | 26 | 148 | 4.8 | 9.7 | 0.00 | 0.00 | 0.00 | 54 | 1012.0 |
| 20260904232937 | 26 | 238 | 6.4 | 11.3 | 0.00 | 0.00 | 0.00 | 55 | 1011.9 |
| 20260904232416 | 26 | 125 | 1.6 | 1.6 | 0.00 | 0.00 | 0.00 | 54 | 1011.9 |
| 20260904231917 | 26 | 148 | 4.8 | 9.7 | 0.00 | 0.00 | 0.00 | 54 | 1012.0 |
| 20260904231416 | 26 | 215 | 4.8 | 9.7 | 0.00 | 0.00 | 0.00 | 54 | 1011.9 |
| 20260904230936 | 26 | 170 | 3.2 | 6.4 | 0.00 | 0.00 | 0.00 | 54 | 1012.0 |
| 20260904230416 | 26 | 148 | 8.0 | 11.3 | 0.00 | 0.00 | 0.00 | 53 | 1012.0 |
| 20260904225916 | 26 | 215 | 3.2 | 6.4 | 0.00 | 0.00 | 0.00 | 53 | 1012.0 |
| 20260904225417 | 26 | 215 | 6.4 | 9.7 | 0.00 | 0.00 | 0.00 | 53 | 1012.1 |
| 20260904224917 | 26 | 215 | 4.8 | 8.0 | 0.00 | 0.00 | 0.00 | 54 | 1012.1 |
| 20260904224416 | 26 | 148 | 3.2 | 6.4 | 0.00 | 0.00 | 0.00 | 54 | 1012.2 |
| 20260904223917 | 26 | 148 | 8.0 | 9.7 | 0.00 | 0.00 | 0.00 | 53 | 1012.2 |
| 20260904223416 | 26 | 148 | 1.6 | 6.4 | 0.00 | 0.00 | 0.00 | 54 | 1012.2 |
| 20260904222916 | 26 | 170 | 8.0 | 9.7 | 0.00 | 0.00 | 0.00 | 54 | 1012.1 |
| 20260904222416 | 26 | 215 | 3.2 | 6.4 | 0.00 | 0.00 | 0.00 | 55 | 1012.2 |
| 20260904221916 | 26 | 283 | 8.0 | 12.9 | 0.00 | 0.00 | 0.00 | 55 | 1012.2 |
| 20260904221436 | 26 | 215 | 8.0 | 11.3 | 0.00 | 0.00 | 0.00 | 55 | 1012.2 |
| 20260904220916 | 26 | 193 | 4.8 | 11.3 | 0.00 | 0.00 | 0.00 | 57 | 1012.2 |
| 20260904220416 | 26 | 238 | 4.8 | 8.0 | 0.00 | 0.00 | 0.00 | 58 | 1012.3 |
| 20260904215936 | 26 | 170 | 6.4 | 8.0 | 0.00 | 0.00 | 0.00 | 58 | 1012.2 |
| 20260904215416 | 26 | 148 | 3.2 | 4.8 | 0.00 | 0.00 | 0.00 | 57 | 1012.2 |
| 20260904214916 | 26 | 125 | 6.4 | 12.9 | 0.00 | 0.00 | 0.00 | 57 | 1012.3 |
| 20260904214416 | 26 | 148 | 4.8 | 6.4 | 0.00 | 0.00 | 0.00 | 59 | 1012.3 |
| 20260904213916 | 26 | 238 | 6.4 | 9.7 | 0.00 | 0.00 | 0.00 | 59 | 1012.4 |
| 20260904213416 | 26 | 125 | 6.4 | 11.3 | 0.00 | 0.00 | 0.00 | 59 | 1012.4 |
| 20260904212916 | 26 | 170 | 4.8 | 8.0 | 0.00 | 0.00 | 0.00 | 58 | 1012.4 |
| 20260904212416 | 26 | 170 | 6.4 | 9.7 | 0.00 | 0.00 | 0.00 | 58 | 1012.4 |
| 20260904211957 | 26 | 170 | 8.0 | 12.9 | 0.00 | 0.00 | 0.00 | 59 | 1012.4 |
| 20260904211416 | 26 | 238 | 8.0 | 14.5 | 0.00 | 0.00 | 0.00 | 59 | 1012.4 |
| 20260904210916 | 26 | 283 | 4.8 | 8.0 | 0.00 | 0.00 | 0.00 | 59 | 1012.3 |
| 20260904210416 | 26 | 260 | 6.4 | 9.7 | 0.00 | 0.00 | 0.00 | 59 | 1012.4 |
| 20260904205916 | 26 | 215 | 8.0 | 12.9 | 0.00 | 0.00 | 0.00 | 58 | 1012.5 |
| 20260904205416 | 26 | 260 | 4.8 | 6.4 | 0.00 | 0.00 | 0.00 | 60 | 1012.4 |
| 20260904204916 | 26 | 170 | 3.2 | 6.4 | 0.00 | 0.00 | 0.00 | 60 | 1012.5 |
| 20260904204416 | 26 | 238 | 8.0 | 16.1 | 0.00 | 0.00 | 0.00 | 59 | 1012.6 |
| 20260904203916 | 26 | 238 | 6.4 | 12.9 | 0.00 | 0.00 | 0.00 | 59 | 1012.6 |
| 20260904203416 | 26 | 148 | 6.4 | 11.3 | 0.00 | 0.00 | 0.00 | 59 | 1012.6 |
| 20260904202916 | 26 | 238 | 8.0 | 14.5 | 0.00 | 0.00 | 0.00 | 58 | 1012.6 |
| 20260904202416 | 26 | 148 | 4.8 | 8.0 | 0.00 | 0.00 | 0.00 | 59 | 1012.6 |
| 20260904201916 | 26 | 125 | 9.7 | 11.3 | 0.00 | 0.00 | 0.00 | 58 | 1012.8 |
| 20260904201416 | 26 | 58 | 1.6 | 4.8 | 0.00 | 0.00 | 0.00 | 60 | 1012.9 |
| 20260904200916 | 25 | 103 | 3.2 | 4.8 | 0.00 | 0.00 | 0.00 | 61 | 1012.8 |
| 20260904200436 | 25 | 125 | 6.4 | 9.7 | 0.00 | 0.00 | 0.00 | 61 | 1012.9 |
| 20260904195916 | 25 | 148 | 6.4 | 9.7 | 0.00 | 0.00 | 0.00 | 61 | 1013.0 |
| 20260904195416 | 25 | 148 | 12.9 | 17.7 | 0.00 | 0.00 | 0.00 | 61 | 1013.0 |
| 20260904194916 | 25 | 125 | 4.8 | 9.7 | 0.00 | 0.00 | 0.00 | 60 | 1013.0 |
| 20260904194416 | 25 | 125 | 4.8 | 8.0 | 0.00 | 0.00 | 0.00 | 62 | 1013.0 |
| 20260904193916 | 25 | 125 | 6.4 | 9.7 | 0.00 | 0.00 | 0.00 | 60 | 1013.0 |
| 20260904193416 | 25 | 148 | 4.8 | 8.0 | 0.00 | 0.00 | 0.00 | 60 | 1013.2 |
| 20260904192916 | 25 | 0.0 | 0.0 | 0.00 | 0.00 | 0.00 | 62 | 1013.2 | |
| 20260904192416 | 25 | 125 | 3.2 | 4.8 | 0.00 | 0.00 | 0.00 | 61 | 1013.2 |
| 20260904191916 | 25 | 103 | 3.2 | 9.7 | 0.00 | 0.00 | 0.00 | 61 | 1013.4 |
| 20260904191416 | 25 | 148 | 6.4 | 9.7 | 0.00 | 0.00 | 0.00 | 64 | 1013.5 |
| 20260904190916 | 25 | 148 | 6.4 | 8.0 | 0.00 | 0.00 | 0.00 | 64 | 1013.6 |
| 20260904190416 | 25 | 148 | 3.2 | 4.8 | 0.00 | 0.00 | 0.00 | 65 | 1013.6 |
| 20260904185916 | 25 | 170 | 6.4 | 11.3 | 0.00 | 0.00 | 0.00 | 66 | 1013.7 |
| 20260904185416 | 24 | 238 | 3.2 | 4.8 | 0.00 | 0.00 | 0.00 | 65 | 1013.8 |
| 20260904184916 | 24 | 148 | 9.7 | 19.3 | 0.00 | 0.00 | 0.00 | 65 | 1013.8 |
| 20260904184416 | 25 | 170 | 3.2 | 4.8 | 0.00 | 0.00 | 0.00 | 64 | 1013.8 |
| 20260904183916 | 25 | 125 | 8.0 | 16.1 | 0.00 | 0.00 | 0.00 | 64 | 1013.8 |
| 20260904183416 | 24 | 148 | 6.4 | 9.7 | 0.00 | 0.00 | 0.00 | 65 | 1013.9 |
| 20260904182916 | 25 | 148 | 8.0 | 12.9 | 0.00 | 0.00 | 0.00 | 64 | 1013.8 |
| 20260904182416 | 25 | 148 | 12.9 | 22.5 | 0.00 | 0.00 | 0.00 | 62 | 1013.9 |
| 20260904181956 | 25 | 148 | 3.2 | 9.7 | 0.00 | 0.00 | 0.00 | 63 | 1013.8 |
| 20260904181416 | 25 | 238 | 4.8 | 8.0 | 0.00 | 0.00 | 0.00 | 64 | 1013.7 |